Brainerd, MN

7:11 AM CDT on April 25, 2017 (GMT -0500)
Brainerd-Crow Wing County Regional

Weather History for KBRD - November, 2012

Change the Weather History Date:

Thursday, November 1, 2012

  Actual Average Record
Temperature  
Mean Temperature 36 °F -  
Max Temperature 43 °F 49 °F 69 °F (1990)
Min Temperature 30 °F 28 °F 10 °F (1984)
Degree Days  
Heating Degree Days 28    
Moisture  
Dew Point 26 °F    
Average Humidity 65    
Maximum Humidity 81    
Minimum Humidity 52    
Precipitation  
Precipitation 0.00 in - - ()
Sea Level Pressure  
Sea Level Pressure 30.03 in    
Wind  
Wind Speed 11 mph (NNW)    
Max Wind Speed 15 mph    
Max Gust Speed 22 mph    
Visibility 10 miles    
Events Rain    
Averages and records for this station are not official NWS values.
T = Trace of Precipitation, MM = Missing Value Source: NWS Daily Summary

Daily Weather History Graph

Daily Weather History Graph

Search for Another Location

Airport or City:

Trip Planner

Search our weather history database for the weather conditions in past years. The results will help you decide how hot, cold, wet, or windy it might be!

Date:

Astronomy

Nov. 01, 2012 Rise Set
Actual Time 7:58 AM CDT 6:00 PM CDT
Civil Twilight 7:27 AM CDT 6:32 PM CDT
Nautical Twilight 6:51 AM CDT 7:07 PM CDT
Astronomical Twilight 6:16 AM CDT 7:42 PM CDT
Moon 7:51 PM CDT (11/1) 10:39 AM CDT (11/1)
Length of Visible Light 11h 05m
Length of Day
10h 02m
Waning Gibbous, 93% of the Moon is Illuminated
Nov 1
Waning Gibbous
Nov 6
Last Quarter
Nov 13
New
Nov 20
First Quarter
Nov 28
Full

Hourly Weather History & Observations

Time (CDT) Temp. Windchill Dew Point Humidity Pressure Visibility Wind Dir Wind Speed Gust Speed Precip Events Conditions
12:53 AM 39.9 °F 33.9 °F 30.0 °F 68% 29.97 in 10.0 mi NNW 9.2 mph - N/A   Scattered Clouds
1:14 AM 41.0 °F 36.4 °F 30.2 °F 65% 29.94 in 10.0 mi NNW 6.9 mph - N/A   Mostly Cloudy
1:21 AM 42.8 °F 38.0 °F 30.2 °F 61% 29.94 in 10.0 mi NNW 8.1 mph - N/A   Overcast
1:53 AM 43.0 °F 36.8 °F 30.0 °F 60% 29.98 in 10.0 mi NNW 11.5 mph - N/A   Overcast
2:53 AM 42.1 °F 35.2 °F 33.1 °F 70% 29.99 in 10.0 mi NNW 12.7 mph - N/A   Overcast
3:53 AM 41.0 °F 33.1 °F 33.1 °F 73% 29.99 in 10.0 mi North 15.0 mph 21.9 mph N/A   Overcast
4:15 AM 41.0 °F 34.3 °F 33.8 °F 76% 29.96 in 10.0 mi NNW 11.5 mph - N/A   Overcast
4:37 AM 41.0 °F 35.2 °F 33.8 °F 76% 29.96 in 10.0 mi NNW 9.2 mph - N/A   Overcast
4:53 AM 39.9 °F 32.9 °F 32.0 °F 73% 30.00 in 10.0 mi NNW 11.5 mph - N/A   Overcast
5:04 AM 39.2 °F 31.2 °F 33.8 °F 81% 29.97 in 10.0 mi NW 13.8 mph - 0.00 in Rain Light Rain
5:42 AM 37.4 °F 28.5 °F 30.2 °F 75% 29.98 in 10.0 mi NNW 15.0 mph - 0.00 in   Overcast
5:53 AM 37.0 °F 29.3 °F 30.9 °F 79% 30.01 in 10.0 mi NNW 11.5 mph - 0.00 in   Overcast
6:53 AM 37.0 °F 29.3 °F 30.9 °F 79% 30.03 in 10.0 mi NNW 11.5 mph - 0.00 in Rain Light Rain
7:01 AM 37.4 °F 28.9 °F 30.2 °F 75% 29.99 in 10.0 mi NNW 13.8 mph - 0.00 in   Overcast
7:13 AM 37.4 °F 28.9 °F 30.2 °F 75% 30.00 in 10.0 mi NNW 13.8 mph - 0.00 in   Overcast
7:53 AM 37.0 °F 28.1 °F 28.0 °F 70% 30.04 in 10.0 mi NNW 15.0 mph - 0.00 in   Overcast
8:53 AM 37.0 °F 28.9 °F 26.1 °F 65% 30.05 in 10.0 mi NW 12.7 mph - N/A   Overcast
9:53 AM 36.0 °F 27.1 °F 24.1 °F 62% 30.06 in 10.0 mi NNW 13.8 mph - N/A   Overcast
10:53 AM 36.0 °F 28.0 °F 24.1 °F 62% 30.07 in 10.0 mi NNW 11.5 mph - N/A   Overcast
11:53 AM 37.0 °F 29.3 °F 23.0 °F 57% 30.08 in 10.0 mi NNW 11.5 mph - N/A   Overcast
12:53 PM 37.0 °F 29.3 °F 21.9 °F 54% 30.07 in 10.0 mi North 11.5 mph - N/A   Overcast
1:53 PM 36.0 °F 26.7 °F 21.0 °F 55% 30.06 in 10.0 mi North 15.0 mph - N/A   Overcast
2:53 PM 36.0 °F 29.0 °F 21.0 °F 55% 30.06 in 10.0 mi North 9.2 mph 20.7 mph N/A   Overcast
3:05 PM 35.6 °F 26.6 °F 19.4 °F 52% 30.02 in 10.0 mi North 13.8 mph - N/A   Mostly Cloudy
3:53 PM 36.0 °F 27.5 °F 19.9 °F 52% 30.06 in 10.0 mi NNE 12.7 mph - N/A   Mostly Cloudy
4:53 PM 36.0 °F 27.5 °F 19.9 °F 52% 30.08 in 10.0 mi NNW 12.7 mph - N/A   Overcast
5:53 PM 36.0 °F 29.0 °F 19.9 °F 52% 30.08 in 10.0 mi North 9.2 mph - N/A   Overcast
6:53 PM 35.1 °F 27.4 °F 19.9 °F 54% 30.08 in 10.0 mi North 10.4 mph - N/A   Overcast
7:53 PM 34.0 °F 26.6 °F 21.0 °F 59% 30.10 in 10.0 mi North 9.2 mph - N/A   Overcast
8:53 PM 32.0 °F 25.6 °F 21.0 °F 64% 30.11 in 10.0 mi NNE 6.9 mph - N/A   Clear
9:37 PM 30.2 °F 23.4 °F 21.2 °F 69% 30.07 in 10.0 mi NNE 6.9 mph - N/A   Mostly Cloudy
9:53 PM 30.9 °F 24.3 °F 21.9 °F 69% 30.12 in 10.0 mi NNE 6.9 mph - N/A   Mostly Cloudy
10:53 PM 30.9 °F 22.8 °F 21.9 °F 69% 30.13 in 10.0 mi NE 9.2 mph - N/A   Overcast
11:53 PM 30.9 °F 22.8 °F 21.9 °F 69% 30.13 in 10.0 mi NNE 9.2 mph - N/A   Overcast